Montpelier, VT

11:47 AM EST on November 20, 2019 (GMT -0500)
Knapp State

Weather History for KMPV - September, 2019

Change the Weather History Date:

Saturday, September 21, 2019

  Actual Average Record
Temperature  
Mean Temperature 62 °F 55 °F  
Max Temperature 78 °F 67 °F 84 °F (1965)
Min Temperature 45 °F 44 °F 28 °F (1966)
Degree Days  
Heating Degree Days 4 10  
Month to date heating degree days 173 139  
Since 1 July heating degree days 241 247  
Cooling Degree Days 0 0  
Month to date cooling degree days 5 16  
Year to date cooling degree days 216 260  
Growing Degree Days 12 (Base 50)    
Moisture  
Dew Point 52 °F    
Average Humidity 86    
Maximum Humidity 100    
Minimum Humidity 50    
Precipitation  
Precipitation 0.00 in 0.12 in 1.04 in (1966)
Month to date precipitation 1.42 2.06  
Year to date precipitation 36.22 26.86  
Sea Level Pressure  
Sea Level Pressure 30.24 in    
Wind  
Wind Speed 1 mph ()    
Max Wind Speed 9 mph    
Max Gust Speed 12 mph    
Visibility 7.1 miles    
Events Fog    
T = Trace of Precipitation, MM = Missing Value Source: Averaged Metar Reports

Daily Weather History Graph

Daily Weather History Graph

Search for Another Location

Airport or City:

Astronomy

Sep. 21, 2019 Rise Set
Actual Time 6:35 AM EDT 6:49 PM EDT
Civil Twilight 6:07 AM EDT 7:18 PM EDT
Nautical Twilight 5:32 AM EDT 7:52 PM EDT
Astronomical Twilight 4:58 AM EDT 8:27 PM EDT
Moon 11:10 PM EDT (9/21) 1:53 PM EDT (9/21)
Length of Visible Light 13h 11m
Length of Day
12h 14m
Waning Gibbous, 55% of the Moon is Illuminated
Sep 21
Waning Gibbous
Sep 21
Last Quarter
Sep 28
New
Oct 5
First Quarter
Oct 13
Full

Hourly Weather History & Observations

Time (EDT) Temp. Dew Point Humidity Pressure Visibility Wind Dir Wind Speed Gust Speed Precip Events Conditions
12:51 AM 48.9 °F 48.0 °F 97% 30.23 in 10.0 mi Calm Calm - N/A   Clear
1:51 AM 50.0 °F 48.9 °F 96% 30.23 in 10.0 mi Calm Calm - N/A   Clear
2:51 AM 50.0 °F 48.9 °F 96% 30.23 in 10.0 mi Calm Calm - N/A   Clear
3:51 AM 48.0 °F 46.9 °F 96% 30.24 in 10.0 mi Calm Calm - N/A   Clear
4:51 AM 48.0 °F 46.0 °F 93% 30.25 in 10.0 mi Calm Calm - N/A   Clear
5:25 AM 46.9 °F 46.0 °F 97% 30.25 in 1.8 mi Calm Calm - N/A   Clear
5:36 AM 46.9 °F 46.9 °F 100% 30.25 in 1.0 mi Calm Calm - N/A   Clear
5:49 AM 46.4 °F 46.4 °F 100% 30.25 in 1.5 mi Calm Calm - N/A   Clear
5:51 AM 46.0 °F 46.0 °F 100% 30.27 in 1.8 mi Calm Calm - N/A   Clear
5:56 AM 46.0 °F 45.0 °F 96% 30.25 in 3.0 mi Calm Calm - N/A   Clear
6:44 AM 46.9 °F 46.0 °F 97% 30.26 in 2.5 mi Calm Calm - N/A   Partly Cloudy
6:46 AM 46.4 °F 46.4 °F 100% 30.27 in 0.8 mi Calm Calm - N/A   Mist
6:51 AM 48.0 °F 46.9 °F 96% 30.28 in 0.2 mi Calm Calm - N/A Fog Fog
7:03 AM 46.9 °F 46.9 °F 100% 30.27 in 1.5 mi Calm Calm - N/A   Mostly Cloudy
7:06 AM 46.9 °F 46.0 °F 97% 30.27 in 8.0 mi Calm Calm - N/A   Scattered Clouds
7:51 AM 50.0 °F 48.9 °F 96% 30.29 in 10.0 mi Calm Calm - N/A   Clear
8:51 AM 54.0 °F 52.0 °F 93% 30.31 in 10.0 mi Calm Calm - N/A   Clear
9:51 AM 62.1 °F 55.0 °F 78% 30.31 in 10.0 mi Calm Calm - N/A   Clear
10:51 AM 68.0 °F 55.9 °F 65% 30.29 in 10.0 mi Calm Calm - N/A   Clear
11:51 AM 72.0 °F 57.9 °F 61% 30.27 in 10.0 mi NW 3.5 mph - N/A   Clear
12:51 PM 73.9 °F 57.0 °F 55% 30.25 in 10.0 mi NW 3.5 mph - N/A   Clear
1:51 PM 75.9 °F 59.0 °F 56% 30.23 in 10.0 mi WNW 3.5 mph - N/A   Clear
2:51 PM 77.0 °F 59.0 °F 54% 30.21 in 10.0 mi NNW 8.1 mph - N/A   Clear
3:51 PM 78.1 °F 57.9 °F 50% 30.21 in 10.0 mi North 6.9 mph - N/A   Clear
4:51 PM 77.0 °F 59.0 °F 54% 30.21 in 10.0 mi Calm Calm - N/A   Clear
5:51 PM 73.9 °F 59.0 °F 59% 30.21 in 10.0 mi Calm Calm - N/A   Clear
6:51 PM 64.9 °F 60.1 °F 84% 30.21 in 10.0 mi South 3.5 mph - N/A   Clear
7:51 PM 63.0 °F 59.0 °F 87% 30.22 in 10.0 mi Calm Calm - N/A   Clear
8:51 PM 60.1 °F 57.9 °F 93% 30.22 in 10.0 mi Calm Calm - N/A   Clear
9:51 PM 57.9 °F 55.9 °F 93% 30.22 in 10.0 mi Calm Calm - N/A   Clear
10:51 PM 57.0 °F 55.9 °F 96% 30.22 in 10.0 mi Calm Calm - N/A   Clear
11:30 PM 55.9 °F 55.9 °F 100% 30.21 in 2.5 mi Calm Calm - N/A   Clear
11:49 PM 55.4 °F 55.4 °F 100% 30.21 in 3.0 mi Calm Calm - N/A   Clear
11:51 PM 55.9 °F 55.9 °F 100% 30.21 in 4.0 mi Calm Calm - N/A   Clear